Location: Caltech
(34.1382°N, 118.1253°W)
Time: 06:52:11
(UTC-07:00)

SO-67 - Visible Passes

Search period start: 30 September 2014 00:00
Search period end: 10 October 2014 00:00
Orbit: 460 x 465 km, 97.2° (Epoch: 29 September)

Date Brightness Start Highest point End Pass type
(mag) Time Alt. Az. Time Alt. Az. Time Alt. Az.
30 Sep ? 20:22:10 10° WSW 20:23:20 11° W 20:24:31 10° WNW visible
01 Oct ? 19:48:53 10° SSW 19:51:57 30° W 19:55:03 10° NW visible
02 Oct ? 19:17:14 10° SSE 19:20:40 85° ENE 19:24:07 10° N visible
03 Oct ? 20:21:16 10° WSW 20:22:31 12° W 20:23:47 10° WNW visible
04 Oct ? 19:47:58 10° SSW 19:51:03 31° W 19:54:10 10° NNW visible
05 Oct ? 19:16:15 10° SSE 19:19:41 83° ENE 19:23:08 10° N visible
06 Oct ? 20:20:04 10° WSW 20:21:27 12° W 20:22:49 10° WNW visible
07 Oct ? 19:46:47 10° SSW 19:49:54 32° W 19:53:02 10° NNW visible
08 Oct ? 19:15:02 10° SSE 19:18:27 80° ENE 19:21:54 10° N visible
09 Oct ? 20:18:37 10° WSW 20:20:07 12° W 20:21:38 10° WNW visible
